When you browse on this site, cookies collect data to enhance your experience and personalize the content and advertising you see.
Visit our Privacy Policy to learn more. By continuing to use the site, you agree to this use of cookies and data.
  • In Czech Republic
  • List of Countries
  • For 7 days
  • Water Temperature
  • Weather Map
  • Weather Widgets
  • user-avatar
    Login

    Hourly Weather Kribi

    Today, 20 September, Friday

    Time Temperature Precipitation Wind Pressure Humidity
    00:00 +23°C° 0 mm 0 mps 759 mmHg 94%
    01:00 +25°C° 0 mm 1 mps 758 mmHg 93%
    02:00 +25°C° 0 mm 1 mps 758 mmHg 94%
    03:00 +25°C° 0 mm 1 mps 758 mmHg 94%
    04:00 +25°C° 0 mm 1 mps 757 mmHg 94%
    05:00 +25°C° 0.1 mm 1 mps 758 mmHg 94%
    06:00 +25°C° 0.1 mm 1 mps 758 mmHg 93%
    07:00 +25°C° 0.1 mm 1 mps 759 mmHg 93%
    08:00 +27°C° 0.1 mm 1 mps 759 mmHg 85%
    09:00 +29°C° 0.1 mm 1 mps 759 mmHg 77%
    10:00 +31°C° 0.1 mm 1 mps 759 mmHg 68%
    11:00 +31°C° 0.2 mm 2 mps 759 mmHg 70%
    12:00 +31°C° 0.2 mm 2 mps 758 mmHg 71%
    13:00 +31°C° 0.2 mm 3 mps 757 mmHg 73%
    14:00 +32°C° 0.2 mm 4 mps 757 mmHg 75%
    15:00 +30°C° 0.2 mm 4 mps 756 mmHg 77%
    16:00 +30°C° 0.2 mm 4 mps 755 mmHg 79%
    17:00 +29°C° 0 mm 4 mps 756 mmHg 83%
    18:00 +27°C° 0 mm 4 mps 757 mmHg 88%
    19:00 +26°C° 0 mm 3 mps 757 mmHg 93%
    20:00 +26°C° 0 mm 3 mps 758 mmHg 94%
    21:00 +26°C° 0 mm 3 mps 758 mmHg 94%
    22:00 +26°C° 0 mm 3 mps 759 mmHg 95%
    23:00 +26°C° 0 mm 3 mps 759 mmHg 95%

    Tomorrow, 21 September, Saturday

    Time Temperature Precipitation Wind Pressure Humidity
    00:00 +25°C° 0 mm 2 mps 758 mmHg 96%
    01:00 +25°C° 0 mm 2 mps 758 mmHg 97%
    02:00 +25°C° 0 mm 2 mps 758 mmHg 97%
    03:00 +25°C° 0 mm 2 mps 758 mmHg 98%
    04:00 +25°C° 0 mm 2 mps 757 mmHg 98%
    05:00 +25°C° 0 mm 2 mps 758 mmHg 97%
    06:00 +25°C° 0 mm 2 mps 759 mmHg 96%
    07:00 +26°C° 0 mm 2 mps 759 mmHg 95%
    08:00 +27°C° 0 mm 2 mps 759 mmHg 89%
    09:00 +28°C° 0 mm 2 mps 759 mmHg 82%
    10:00 +30°C° 0 mm 2 mps 759 mmHg 75%
    11:00 +30°C° 0.3 mm 2 mps 759 mmHg 76%
    12:00 +30°C° 0.3 mm 3 mps 758 mmHg 78%
    13:00 +30°C° 0.3 mm 3 mps 757 mmHg 79%
    14:00 +30°C° 0.1 mm 3 mps 757 mmHg 77%
    15:00 +30°C° 0.1 mm 3 mps 756 mmHg 75%
    16:00 +30°C° 0.1 mm 4 mps 755 mmHg 74%
    17:00 +29°C° 0 mm 4 mps 756 mmHg 80%
    18:00 +27°C° 0 mm 4 mps 756 mmHg 86%
    19:00 +26°C° 0 mm 4 mps 757 mmHg 92%
    20:00 +26°C° 0 mm 3 mps 757 mmHg 93%
    21:00 +26°C° 0 mm 3 mps 758 mmHg 94%
    22:00 +25°C° 0 mm 3 mps 758 mmHg 96%
    23:00 +25°C° 0 mm 2 mps 758 mmHg 95%

    Day after tomorrow, 22 September, Sunday

    Time Temperature Precipitation Wind Pressure Humidity
    00:00 +25°C° 0 mm 2 mps 758 mmHg 95%
    01:00 +25°C° 0 mm 2 mps 758 mmHg 95%
    02:00 +25°C° 0.1 mm 2 mps 757 mmHg 95%
    03:00 +25°C° 0.1 mm 1 mps 757 mmHg 95%
    04:00 +26°C° 0.1 mm 1 mps 757 mmHg 95%
    05:00 +26°C° 0.3 mm 2 mps 757 mmHg 94%
    06:00 +26°C° 0.3 mm 2 mps 758 mmHg 94%
    07:00 +26°C° 0.3 mm 3 mps 758 mmHg 94%
    08:00 +27°C° 0 mm 3 mps 759 mmHg 87%
    09:00 +29°C° 0 mm 3 mps 759 mmHg 80%
    10:00 +30°C° 0 mm 2 mps 759 mmHg 72%
    11:00 +30°C° 0.1 mm 3 mps 758 mmHg 72%
    12:00 +32°C° 0.1 mm 4 mps 757 mmHg 71%
    13:00 +32°C° 0.1 mm 4 mps 756 mmHg 71%
    14:00 +30°C° 0.1 mm 4 mps 756 mmHg 73%
    15:00 +30°C° 0.1 mm 4 mps 756 mmHg 75%
    16:00 +29°C° 0.1 mm 4 mps 756 mmHg 77%
    17:00 +28°C° 0 mm 4 mps 756 mmHg 81%
    18:00 +27°C° 0 mm 4 mps 756 mmHg 86%
    19:00 +26°C° 0 mm 3 mps 757 mmHg 91%
    20:00 +26°C° 0 mm 3 mps 757 mmHg 92%
    21:00 +26°C° 0 mm 2 mps 758 mmHg 94%
    22:00 +26°C° 0 mm 2 mps 758 mmHg 95%
    23:00 +25°C° 0 mm 2 mps 758 mmHg 96%

    23 September, Monday

    Time Temperature Precipitation Wind Pressure Humidity
    00:00 +25°C° 0 mm 2 mps 758 mmHg 96%
    01:00 +25°C° 0 mm 2 mps 758 mmHg 96%
    02:00 +25°C° 0 mm 2 mps 758 mmHg 96%
    03:00 +25°C° 0 mm 2 mps 757 mmHg 95%
    04:00 +25°C° 0 mm 2 mps 757 mmHg 94%
    05:00 +26°C° 0.2 mm 2 mps 758 mmHg 94%
    06:00 +26°C° 0.2 mm 2 mps 758 mmHg 93%
    07:00 +26°C° 0.2 mm 2 mps 758 mmHg 93%
    08:00 +27°C° 0.3 mm 2 mps 759 mmHg 87%
    09:00 +28°C° 0.3 mm 2 mps 759 mmHg 82%
    10:00 +30°C° 0.3 mm 2 mps 759 mmHg 77%
    11:00 +29°C° 1.2 mm 3 mps 759 mmHg 81%
    12:00 +29°C° 1.2 mm 3 mps 758 mmHg 84%
    13:00 +29°C° 1.2 mm 4 mps 757 mmHg 88%
    14:00 +28°C° 0 mm 4 mps 757 mmHg 88%
    15:00 +28°C° 0 mm 4 mps 756 mmHg 89%
    16:00 +27°C° 0 mm 4 mps 756 mmHg 89%
    17:00 +27°C° 0 mm 3 mps 756 mmHg 91%
    18:00 +26°C° 0 mm 3 mps 757 mmHg 93%
    19:00 +26°C° 0 mm 2 mps 757 mmHg 95%
    20:00 +26°C° 0 mm 2 mps 758 mmHg 95%
    21:00 +26°C° 0 mm 2 mps 758 mmHg 96%
    22:00 +26°C° 0 mm 2 mps 759 mmHg 96%
    23:00 +25°C° 0.2 mm 2 mps 758 mmHg 97%

    24 September, Tuesday

    Time Temperature Precipitation Wind Pressure Humidity
    00:00 +25°C° 0.2 mm 2 mps 758 mmHg 97%
    01:00 +25°C° 0.2 mm 1 mps 758 mmHg 98%
    02:00 +25°C° 0.1 mm 2 mps 758 mmHg 98%
    03:00 +25°C° 0.1 mm 2 mps 758 mmHg 98%
    04:00 +25°C° 0.1 mm 2 mps 758 mmHg 98%
    05:00 +25°C° 0.1 mm 2 mps 758 mmHg 97%
    06:00 +25°C° 0.1 mm 2 mps 759 mmHg 96%
    07:00 +25°C° 0.1 mm 2 mps 759 mmHg 95%
    08:00 +27°C° 0.1 mm 2 mps 759 mmHg 87%
    09:00 +29°C° 0.1 mm 2 mps 760 mmHg 78%
    10:00 +31°C° 0.1 mm 2 mps 760 mmHg 70%
    11:00 +31°C° 0.3 mm 3 mps 759 mmHg 74%
    12:00 +30°C° 0.3 mm 3 mps 758 mmHg 77%
    13:00 +30°C° 0.3 mm 4 mps 757 mmHg 80%
    14:00 +30°C° 0.1 mm 4 mps 757 mmHg 79%
    15:00 +30°C° 0.1 mm 4 mps 756 mmHg 77%
    16:00 +30°C° 0.1 mm 4 mps 756 mmHg 75%
    17:00 +29°C° 0 mm 4 mps 756 mmHg 81%
    18:00 +27°C° 0 mm 4 mps 757 mmHg 87%
    19:00 +26°C° 0 mm 3 mps 757 mmHg 92%
    20:00 +26°C° 0 mm 3 mps 758 mmHg 94%
    21:00 +26°C° 0 mm 3 mps 758 mmHg 96%
    22:00 +25°C° 0 mm 3 mps 759 mmHg 97%
    23:00 +25°C° 0.1 mm 3 mps 758 mmHg 98%

    25 September, Wednesday

    Time Temperature Precipitation Wind Pressure Humidity
    00:00 +25°C° 0.1 mm 2 mps 758 mmHg 98%
    01:00 +25°C° 0.1 mm 2 mps 758 mmHg 98%
    02:00 +25°C° 0.1 mm 2 mps 758 mmHg 98%
    03:00 +25°C° 0.1 mm 2 mps 758 mmHg 98%
    04:00 +25°C° 0.1 mm 2 mps 757 mmHg 98%
    05:00 +25°C° 0.2 mm 2 mps 758 mmHg 97%
    06:00 +25°C° 0.2 mm 2 mps 758 mmHg 96%
    07:00 +26°C° 0.2 mm 2 mps 759 mmHg 95%
    08:00 +27°C° 1.2 mm 2 mps 759 mmHg 92%
    09:00 +28°C° 1.2 mm 2 mps 759 mmHg 88%
    10:00 +29°C° 1.2 mm 3 mps 759 mmHg 85%
    11:00 +29°C° 0.9 mm 3 mps 759 mmHg 86%
    12:00 +28°C° 0.9 mm 3 mps 758 mmHg 88%
    13:00 +28°C° 0.9 mm 4 mps 757 mmHg 89%
    14:00 +28°C° 0 mm 4 mps 757 mmHg 85%
    15:00 +29°C° 0 mm 4 mps 756 mmHg 81%
    16:00 +30°C° 0 mm 4 mps 756 mmHg 77%
    17:00 +28°C° 0.1 mm 3 mps 756 mmHg 82%
    18:00 +27°C° 0.1 mm 3 mps 757 mmHg 88%
    19:00 +26°C° 0.1 mm 3 mps 757 mmHg 94%
    20:00 +26°C° 0 mm 3 mps 758 mmHg 95%
    21:00 +26°C° 0 mm 3 mps 758 mmHg 96%
    22:00 +25°C° 0 mm 3 mps 759 mmHg 97%
    23:00 +25°C° 0.1 mm 3 mps 758 mmHg 96%
    Show more